Wind_Speed
25 25 24 25 23 19 19 17 19 20 20 22 22 22 25 26 26 27 28 31 31 33 35 36 35 34 37 40 42 43 45 48 48 50 54 58 60 63 63 65 65 69 71
26 28 29 31 29 27 25 24 24 24 25 27 28 28 29 31 30 31 32 35 36 36 36 39 39 40 43 44 45 48 50 52 53 55 57 59 61 63 64 66 69 70 66
29 30 30 32 35 30 29 30 30 28 30 30 31 32 33 37 37 36 37 39 41 41 40 43 46 48 49 49 50 54 54 54 57 58 59 61 63 64 66 69 66 60 51
32 31 32 34 33 32 33 34 32 31 32 33 34 36 38 40 42 42 42 44 47 46 47 49 50 52 53 54 56 56 56 56 58 60 62 62 62 60 56 53 49 45 43
37 35 33 31 33 36 37 36 36 34 33 35 38 39 40 42 45 45 48 53 55 52 53 51 46 45 50 53 54 54 56 59 60 61 62 60 56 51 47 44 44 43 42
39 35 35 35 37 37 39 39 39 36 35 37 38 40 43 45 49 49 52 57 53 50 47 47 47 50 52 54 56 57 58 58 59 60 59 56 51 48 47 45 45 44 42
36 39 40 41 40 40 42 43 40 38 35 37 38 42 44 50 56 54 48 44 43 42 39 47 53 54 54 55 57 57 57 57 59 59 57 53 50 49 48 48 48 50 50
25 30 34 39 41 44 44 42 38 36 37 41 41 40 44 46 44 45 42 39 39 40 45 50 52 53 55 56 55 55 57 60 59 56 54 52 50 50 50 54 57 58 57
22 23 28 34 36 38 38 39 40 41 44 44 41 41 43 43 42 43 40 39 41 43 47 52 54 55 54 52 55 57 59 59 57 55 53 53 54 55 56 59 62 63 63
22 25 27 29 31 33 34 38 40 39 42 44 44 42 41 39 38 40 45 42 41 45 50 53 52 50 52 55 57 58 58 56 55 55 55 56 58 58 59 61 63 64 64
28 30 30 30 31 30 32 36 37 39 44 44 42 39 36 33 39 42 39 38 41 47 50 48 49 52 55 56 57 57 55 55 57 57 57 57 58 59 61 62 63 63 62
30 29 27 28 31 34 36 37 36 38 41 36 36 40 40 41 44 41 37 39 44 45 45 47 50 53 55 56 56 55 54 55 57 57 57 58 59 59 60 60 60 59 56
31 32 32 31 33 35 35 36 37 40 44 44 43 43 42 42 41 40 40 43 44 45 47 49 50 53 54 53 53 53 53 54 54 56 58 59 60 58 55 52 48 46 45
36 39 40 37 35 34 34 37 42 47 49 49 46 43 40 40 40 42 44 44 45 47 48 49 49 50 51 52 52 52 53 53 55 57 58 57 54 48 43 39 37 35 34
36 38 41 39 39 42 44 46 50 50 51 49 44 42 40 39 41 42 43 45 45 45 46 47 48 50 51 51 51 52 54 55 56 54 52 49 44 41 41 38 33 28 25
39 41 43 46 48 50 53 54 51 50 51 47 43 43 43 42 42 42 43 43 44 44 46 48 50 51 51 51 52 53 55 53 50 46 44 43 42 42 41 34 28 23 19
46 48 50 52 53 53 53 46 47 48 47 44 42 45 47 43 41 40 41 43 44 45 47 50 50 50 50 51 52 53 51 46 42 40 40 38 35 35 31 26 23 20 18
52 51 52 51 50 49 40 44 47 44 45 43 44 49 44 40 41 40 41 44 45 47 49 50 49 49 49 50 50 48 44 40 37 36 34 31 30 26 21 19 17 14 13
48 47 49 49 51 41 44 48 37 44 45 42 46 41 39 41 41 41 42 44 47 49 50 48 47 48 49 47 45 42 39 34 32 32 30 27 24 19 14 13 12 10 9
45 46 48 46 41 41 43 37 43 48 43 39 37 36 38 41 41 42 44 46 49 48 47 46 46 47 45 42 40 37 32 29 29 28 28 24 19 16 12 10 7 5 3
44 44 43 38 42 43 43 50 51 48 42 37 36 36 38 39 41 43 45 47 48 47 47 47 45 43 40 37 36 32 28 26 25 24 24 23 19 15 9 4 4 8 8
38 37 34 31 42 45 45 46 41 36 33 33 35 35 37 39 42 44 45 46 47 48 48 46 42 38 36 33 31 27 23 22 20 21 19 17 12 4 5 9 12 11 10
30 30 29 34 38 38 39 36 33 31 30 30 32 35 37 40 42 43 45 47 48 47 44 40 35 33 32 28 23 19 16 17 19 18 16 11 7 10 13 14 13 13 12
24 26 29 35 37 33 30 27 28 27 26 29 33 36 39 40 42 44 46 46 43 38 33 30 30 30 26 21 15 12 14 16 17 16 9 10 12 14 14 13 12 11 10
21 24 27 30 28 25 23 23 23 23 26 31 34 37 38 40 42 43 42 38 32 27 26 27 28 26 19 13 9 10 11 12 13 9 9 11 12 12 10 10 11 11 9
18 21 18 16 17 17 17 18 20 24 28 31 34 36 39 41 41 38 33 28 22 22 26 28 24 17 11 6 6 7 8 10 12 9 10 12 12 13 13 14 14 12 11
Wind_Direction
252 254 252 253 253 265 277 282 288 292 299 302 298 294 295 296 301 307 306 306 303 298 292 287 288 291 293 298 300 301 299 296 290 287 286 286 285 283 281 279 279 278 277
265 263 256 257 256 259 265 270 276 283 295 299 297 297 294 295 299 301 303 304 299 295 290 285 286 288 290 293 296 298 302 298 292 291 289 288 287 285 284 281 279 278 278
256 259 258 263 257 258 263 270 272 279 291 295 294 293 295 299 300 301 298 299 299 289 285 289 289 289 289 292 295 297 296 293 292 294 293 290 288 287 285 284 284 282 275
261 263 264 265 259 259 264 271 273 280 289 293 294 296 298 298 296 298 300 300 296 291 287 296 301 298 293 292 292 295 295 294 293 293 293 292 289 286 285 286 285 280 276
268 271 267 259 260 261 266 273 277 282 288 293 294 294 297 301 297 293 296 296 295 291 288 293 298 298 291 289 291 294 295 294 294 295 295 293 291 289 286 284 281 280 278
264 259 257 259 264 267 270 273 277 280 287 292 291 292 295 302 302 299 299 295 293 292 292 292 293 294 293 293 293 293 293 294 295 296 296 294 292 290 288 286 284 283 280
258 256 256 260 264 268 272 275 278 281 286 286 287 293 298 305 302 296 294 296 300 299 295 290 291 293 294 294 295 295 296 295 295 295 294 292 291 290 288 286 285 284 283
260 257 257 260 263 268 274 278 281 283 286 287 288 292 297 303 301 295 294 295 296 294 292 292 293 294 297 297 296 295 294 293 293 292 292 291 289 287 287 287 287 286 285
274 275 271 267 267 267 269 273 276 277 283 288 289 295 297 298 301 295 298 301 298 294 294 294 295 298 297 295 295 294 292 291 292 293 292 290 288 288 289 289 287 286 285
275 280 275 277 276 274 273 272 273 278 286 287 288 293 290 288 295 295 297 297 295 294 295 297 298 296 295 296 294 291 291 294 295 294 292 291 291 291 291 290 289 288 286
289 290 284 282 280 277 278 280 281 287 287 286 286 290 292 300 301 304 300 295 294 296 296 295 295 296 296 294 293 294 296 297 296 294 293 292 293 294 295 293 291 289 287
295 295 293 293 289 288 284 280 284 289 289 289 285 299 307 306 305 301 296 296 298 297 295 294 296 296 295 295 295 296 297 296 296 296 297 298 298 297 295 292 289 287 284
288 289 289 291 288 286 285 286 287 292 294 298 302 304 306 306 301 295 294 298 297 296 295 295 295 294 294 294 295 296 297 298 300 301 302 301 299 297 295 294 293 291 288
290 291 291 288 284 285 289 294 298 299 300 304 307 309 307 301 295 294 298 299 299 298 296 294 294 295 296 296 298 301 303 304 305 305 303 300 297 295 295 297 297 298 295
291 293 289 284 284 290 295 296 300 303 304 305 306 308 304 298 296 297 298 298 298 296 296 297 299 300 301 303 307 308 309 309 308 305 302 299 295 292 295 297 294 296 296
293 295 294 289 286 288 291 295 300 302 301 299 302 307 299 297 298 299 299 299 300 301 303 304 305 306 308 311 312 312 312 311 308 305 303 302 296 293 295 291 288 289 288
289 294 293 291 288 289 293 294 300 305 294 288 295 301 294 295 297 298 299 302 306 309 309 309 309 310 313 314 314 314 313 310 307 307 308 307 302 297 293 284 282 284 282
287 289 289 289 292 291 285 292 302 300 282 280 298 301 297 299 298 301 304 308 311 312 311 311 311 313 315 316 315 314 312 311 310 310 312 310 307 300 290 279 276 284 285
283 284 285 287 290 275 287 291 287 297 283 281 294 297 299 299 300 306 309 311 313 313 311 311 313 315 316 316 314 313 314 313 314 316 316 315 313 308 293 280 279 279 278
278 280 282 286 279 279 283 281 304 297 287 293 296 297 298 300 304 309 311 313 313 310 311 313 315 316 316 314 313 314 314 316 319 322 321 321 316 311 297 284 267 245 227
277 279 281 285 266 270 281 281 290 285 289 297 299 299 301 305 308 311 312 312 310 311 313 315 316 315 314 313 313 313 315 318 320 322 320 320 319 307 280 238 154 140 140
272 275 278 276 268 273 281 285 287 292 298 300 301 302 305 308 311 312 312 311 312 314 315 316 315 314 314 314 313 313 318 322 323 324 323 329 336 333 134 128 125 125 130
273 274 276 270 267 276 283 288 292 295 298 300 302 306 310 312 312 312 313 314 315 316 316 315 313 314 315 315 315 320 326 333 333 334 341 356 33 89 106 111 116 119 122
270 266 265 267 274 276 280 287 291 295 303 307 309 311 313 312 313 314 316 318 319 319 318 317 318 319 317 315 317 328 339 339 339 344 19 60 81 95 104 109 117 128 130
269 272 273 275 273 277 286 290 296 306 310 312 313 313 313 314 316 318 320 323 324 324 325 327 327 323 319 318 326 342 344 345 348 11 75 83 95 102 106 112 114 115 117
280 272 269 279 287 289 294 304 313 316 318 317 316 316 317 319 321 323 324 327 331 336 335 332 330 330 327 323 339 356 355 359 10 66 92 100 106 111 115 117 112 101 96
Height
5862 5861 5862 5860 5859 5858 5857 5857 5856 5854 5852 5851 5849 5846 5844 5841 5839 5836 5834 5831 5828 5824 5820 5817 5813 5810 5806 5802 5798 5794 5789 5783 5777 5772 5768 5763 5757 5751 5747 5741 5737 5732 5727
5855 5856 5855 5853 5854 5853 5852 5851 5850 5848 5846 5844 5842 5839 5837 5834 5832 5830 5827 5824 5821 5818 5814 5810 5806 5801 5797 5793 5788 5783 5776 5770 5764 5759 5754 5748 5742 5734 5729 5724 5718 5714 5709
5849 5849 5849 5848 5846 5846 5845 5843 5842 5841 5839 5837 5834 5831 5829 5827 5824 5821 5819 5816 5812 5809 5806 5802 5797 5792 5787 5782 5776 5770 5763 5757 5749 5743 5737 5730 5723 5717 5711 5705 5700 5698 5694
5842 5842 5841 5840 5839 5839 5837 5834 5833 5832 5830 5828 5825 5822 5820 5818 5814 5811 5808 5805 5802 5798 5794 5790 5785 5780 5774 5769 5762 5756 5748 5741 5733 5726 5720 5714 5705 5699 5695 5689 5685 5684 5682
5834 5833 5833 5833 5832 5831 5829 5827 5825 5824 5822 5820 5816 5814 5810 5807 5804 5800 5796 5793 5789 5785 5781 5776 5771 5766 5759 5753 5746 5740 5733 5725 5719 5712 5705 5698 5690 5683 5680 5677 5675 5673 5670
5825 5825 5825 5825 5823 5821 5819 5818 5817 5815 5814 5811 5807 5803 5800 5797 5793 5788 5784 5780 5775 5771 5767 5763 5758 5752 5745 5738 5732 5725 5719 5711 5704 5697 5690 5684 5679 5673 5668 5665 5662 5660 5659
5817 5818 5817 5817 5816 5812 5810 5809 5808 5806 5804 5800 5796 5794 5790 5786 5782 5777 5771 5767 5762 5758 5753 5750 5744 5738 5731 5724 5718 5712 5705 5697 5689 5682 5675 5669 5664 5660 5656 5652 5648 5646 5644
5808 5809 5809 5809 5807 5804 5800 5799 5796 5795 5794 5792 5788 5784 5781 5775 5770 5766 5759 5754 5750 5746 5742 5737 5731 5724 5717 5711 5705 5697 5690 5682 5674 5668 5662 5656 5649 5645 5641 5638 5634 5630 5627
5800 5800 5800 5798 5796 5794 5793 5792 5789 5788 5785 5783 5779 5777 5770 5765 5759 5755 5749 5744 5738 5734 5729 5724 5717 5710 5703 5696 5690 5681 5674 5666 5660 5654 5649 5643 5637 5632 5627 5622 5617 5612 5608
5793 5793 5790 5787 5786 5784 5783 5782 5779 5778 5776 5772 5767 5763 5758 5753 5748 5745 5740 5732 5726 5721 5715 5710 5703 5696 5689 5683 5675 5666 5659 5653 5646 5640 5635 5630 5624 5618 5612 5606 5599 5592 5587
5787 5785 5783 5780 5777 5775 5774 5773 5772 5769 5764 5759 5754 5751 5748 5744 5739 5733 5727 5720 5714 5709 5703 5697 5690 5684 5677 5669 5661 5654 5645 5640 5634 5627 5620 5614 5608 5601 5594 5586 5579 5573 5567
5779 5777 5775 5773 5770 5768 5766 5763 5761 5758 5754 5748 5743 5740 5736 5731 5726 5720 5715 5709 5702 5696 5691 5684 5677 5671 5663 5656 5648 5641 5632 5625 5619 5612 5605 5597 5590 5584 5576 5568 5561 5555 5548
5771 5769 5768 5765 5762 5759 5756 5753 5751 5746 5742 5738 5734 5730 5724 5718 5713 5707 5702 5696 5690 5684 5677 5671 5664 5658 5651 5643 5635 5627 5619 5610 5603 5595 5587 5580 5573 5567 5559 5552 5546 5539 5534
5764 5761 5758 5756 5753 5750 5746 5743 5739 5735 5730 5726 5722 5718 5712 5706 5701 5696 5690 5684 5678 5672 5666 5659 5651 5644 5637 5630 5621 5613 5604 5596 5587 5579 5571 5564 5557 5551 5544 5539 5534 5529 5524
5755 5752 5749 5746 5743 5739 5736 5732 5727 5722 5718 5714 5710 5706 5700 5695 5689 5684 5678 5672 5666 5660 5654 5646 5638 5631 5624 5616 5606 5597 5589 5580 5572 5564 5556 5549 5543 5537 5532 5528 5524 5520 5516
5745 5742 5739 5735 5731 5728 5725 5721 5716 5712 5707 5703 5699 5694 5689 5684 5679 5673 5668 5662 5655 5648 5640 5633 5625 5618 5610 5601 5592 5583 5575 5567 5559 5551 5544 5537 5531 5526 5521 5517 5515 5512 5510
5733 5730 5725 5722 5719 5717 5712 5709 5705 5700 5695 5691 5687 5682 5678 5673 5668 5662 5656 5650 5644 5636 5628 5620 5613 5605 5596 5588 5579 5571 5564 5555 5547 5540 5534 5527 5521 5515 5511 5508 5507 5506 5505
5722 5719 5714 5710 5708 5704 5701 5698 5694 5690 5686 5682 5675 5672 5667 5663 5658 5651 5644 5638 5631 5623 5616 5608 5600 5593 5585 5577 5569 5560 5553 5545 5538 5532 5525 5518 5511 5506 5503 5501 5501 5501 5500
5710 5707 5703 5699 5696 5694 5690 5687 5682 5679 5675 5669 5666 5661 5657 5653 5646 5639 5632 5625 5618 5611 5605 5597 5589 5582 5575 5567 5559 5552 5544 5537 5530 5524 5517 5511 5505 5500 5497 5496 5497 5497 5497
5698 5696 5692 5690 5688 5686 5683 5678 5673 5670 5665 5659 5655 5651 5647 5642 5636 5629 5622 5614 5607 5601 5594 5587 5579 5572 5565 5558 5551 5543 5536 5530 5524 5517 5511 5505 5500 5496 5494 5493 5493 5494 5496
5687 5685 5683 5682 5682 5677 5674 5670 5667 5662 5654 5650 5647 5642 5638 5633 5626 5619 5611 5604 5598 5591 5584 5578 5570 5563 5557 5549 5542 5535 5529 5524 5518 5513 5507 5501 5496 5493 5491 5491 5492 5494 5497
5677 5676 5675 5674 5673 5667 5664 5660 5656 5651 5645 5642 5639 5635 5630 5624 5616 5609 5602 5595 5588 5580 5573 5566 5560 5554 5547 5541 5534 5529 5524 5519 5514 5509 5504 5498 5493 5490 5490 5492 5494 5497 5499
5669 5668 5667 5665 5662 5660 5657 5652 5648 5644 5640 5637 5633 5628 5621 5614 5607 5600 5593 5586 5578 5570 5562 5555 5550 5544 5538 5532 5528 5524 5520 5516 5511 5506 5502 5498 5495 5493 5494 5496 5499 5501 5502
5661 5660 5660 5658 5655 5653 5649 5644 5642 5639 5635 5631 5625 5619 5612 5605 5598 5590 5584 5576 5567 5559 5552 5547 5541 5535 5530 5526 5523 5521 5518 5514 5510 5506 5502 5500 5499 5499 5500 5502 5504 5505 5506
5655 5654 5653 5651 5650 5646 5643 5641 5637 5633 5629 5623 5617 5611 5604 5597 5590 5582 5574 5566 5559 5552 5546 5540 5534 5529 5525 5522 5520 5518 5516 5514 5511 5506 5504 5503 5503 5504 5505 5506 5507 5508 5509
5651 5649 5648 5646 5644 5642 5639 5636 5632 5627 5622 5616 5610 5603 5596 5588 5581 5574 5567 5560 5554 5548 5542 5536 5530 5526 5522 5520 5519 5518 5516 5514 5511 5508 5507 5507 5507 5508 5508 5509 5511 5511 5511